{"data":{"norad_id":55753,"intl_designator":"2023-028N","name":"STARLINK-5617","alt_names":[],"object_type":"PAYLOAD","status":"ACTIVE","operator":null,"country":"US","launch_date":"2023-03-03","launch_site_code":"AFWTR","launch_vehicle":null,"mission":null,"orbit_class":"UNKNOWN","rcs_meters":null,"size_class":null,"mass_kg":null,"dimensions":null,"purposes":["comms"],"wikipedia_slug":null,"has_3d_model":false,"image_url":null,"decayed_at":null,"tle_current":{"epoch":"2026-05-25T03:32:19.603968Z","epoch_age_seconds":72685,"freshness":"FRESH","line1":"1 55753U 23028N   26145.14744912  .00000281  00000+0  31344-4 0  9999","line2":"2 55753  70.0006  51.6484 0002736 270.1620  89.9225 14.98331410177491","mean_motion":14.9833141,"eccentricity":0.0002736,"inclination_deg":70.0006,"raan_deg":51.6484,"arg_perigee_deg":270.162,"mean_anomaly_deg":89.9225,"bstar":3.1344e-5,"rev_number":17749,"period_min":96.106908684508,"perigee_km":570.14995905716,"apogee_km":573.95310222113,"semimajor_km":6950.1885306391,"source":"CELESTRAK","updated_at":"2026-05-25T13:38:17.880157Z"}}}